Sitka, AK

5:58 AM AKDT on July 25, 2017 (GMT -0800)
Sitka Rocky Gutierrez

Weather History for PASI - January, 2013

Change the Weather History Date:

Tuesday, January 8, 2013

  Actual Average Record
Temperature  
Mean Temperature 34 °F -  
Max Temperature 39 °F 37 °F 52 °F (1978)
Min Temperature 30 °F 28 °F 1 °F (1953)
Degree Days  
Heating Degree Days 30    
Moisture  
Dew Point 33 °F    
Average Humidity 93    
Maximum Humidity 100    
Minimum Humidity 83    
Precipitation  
Precipitation 0.22 in - - ()
Sea Level Pressure  
Sea Level Pressure 29.68 in    
Wind  
Wind Speed 7 mph (East)    
Max Wind Speed 23 mph    
Max Gust Speed 29 mph    
Visibility 8 miles    
Events Fog , Rain , Snow    
Averages and records for this station are not official NWS values.
T = Trace of Precipitation, MM = Missing Value Source: NWS Daily Summary

Daily Weather History Graph

Daily Weather History Graph

Search for Another Location

Airport or City:

Trip Planner

Search our weather history database for the weather conditions in past years. The results will help you decide how hot, cold, wet, or windy it might be!

Date:

Astronomy

Jan. 08, 2013 Rise Set
Actual Time 8:35 AM AKST 3:41 PM AKST
Civil Twilight 7:47 AM AKST 4:29 PM AKST
Nautical Twilight 6:58 AM AKST 5:19 PM AKST
Astronomical Twilight 6:11 AM AKST 6:05 PM AKST
Moon 5:14 AM AKST (1/8) 12:52 PM AKST (1/8)
Length of Visible Light 8h 41m
Length of Day
7h 06m
Waning Crescent, 12% of the Moon is Illuminated
Jan 8
Waning Crescent
Jan 11
New
Jan 18
First Quarter
Jan 26
Full
Feb 3
Last Quarter

Hourly Weather History & Observations

Time (AKST) Temp. Windchill Dew Point Humidity Pressure Visibility Wind Dir Wind Speed Gust Speed Precip Events Conditions
12:05 AM 37.4 °F - 35.6 °F 93% 29.69 in 10.0 mi Calm Calm - N/A   Mostly Cloudy
12:33 AM 37.4 °F 29.8 °F 35.6 °F 93% 29.69 in 10.0 mi SW 11.5 mph 20.7 mph N/A   Overcast
12:47 AM 37.4 °F 27.2 °F 35.6 °F 93% 29.69 in 7.0 mi WSW 19.6 mph 25.3 mph 0.00 in Rain Light Rain
12:53 AM 39.0 °F 28.5 °F 35.1 °F 86% 29.70 in 10.0 mi WSW 23.0 mph 28.8 mph 0.00 in Rain Light Rain
1:07 AM 37.4 °F 27.8 °F 35.6 °F 93% 29.71 in 7.0 mi SSW 17.3 mph - 0.01 in Rain Light Rain
1:36 AM 37.4 °F 34.9 °F 33.8 °F 87% 29.70 in 10.0 mi SSE 3.5 mph - 0.01 in   Overcast
1:53 AM 37.0 °F 31.6 °F 34.0 °F 89% 29.71 in 10.0 mi East 6.9 mph - 0.01 in   Overcast
2:20 AM 37.4 °F 31.4 °F 33.8 °F 87% 29.70 in 10.0 mi East 8.1 mph - N/A   Overcast
2:29 AM 35.6 °F 29.2 °F 33.8 °F 93% 29.70 in 10.0 mi ENE 8.1 mph - N/A   Overcast
2:39 AM 37.4 °F 31.4 °F 33.8 °F 87% 29.70 in 10.0 mi ESE 8.1 mph - 0.00 in Rain Light Rain
3:02 AM 37.4 °F 30.3 °F 35.6 °F 93% 29.70 in 10.0 mi ESE 10.4 mph - N/A   Overcast
3:53 AM 37.9 °F 31.5 °F 33.1 °F 83% 29.70 in 10.0 mi SE 9.2 mph - 0.00 in Rain Light Rain
4:14 AM 37.4 °F 30.8 °F 33.8 °F 87% 29.70 in 10.0 mi ESE 9.2 mph - 0.00 in Rain Light Rain
4:53 AM 37.0 °F 33.3 °F 33.1 °F 86% 29.70 in 9.0 mi ENE 4.6 mph - 0.03 in Rain Light Rain
5:02 AM 35.6 °F 31.7 °F 33.8 °F 93% 29.69 in 10.0 mi ENE 4.6 mph - 0.00 in Rain Light Rain
5:53 AM 37.0 °F - 33.1 °F 86% 29.68 in 7.0 mi Calm Calm - 0.00 in Rain Light Rain
6:02 AM 35.6 °F - 32.0 °F 87% 29.69 in 2.0 mi Calm Calm - 0.05 in Rain Heavy Rain
6:06 AM 35.6 °F - 32.0 °F 87% 29.69 in 1.8 mi Calm Calm - 0.07 in Rain Heavy Rain
6:11 AM 35.6 °F 32.8 °F 32.0 °F 87% 29.69 in 2.0 mi North 3.5 mph - 0.08 in Rain Heavy Rain
6:21 AM 33.8 °F 27.7 °F 32.0 °F 93% 29.68 in 4.0 mi NE 6.9 mph - 0.08 in Snow Light Snow
6:25 AM 33.8 °F 29.6 °F 33.8 °F 100% 29.68 in 6.0 mi NE 4.6 mph - 0.08 in Snow Light Snow
6:50 AM 33.8 °F 28.6 °F 33.8 °F 100% 29.69 in 7.0 mi East 5.8 mph - 0.09 in Rain Light Rain
6:53 AM 34.0 °F 29.8 °F 34.0 °F 100% 29.68 in 7.0 mi ENE 4.6 mph - 0.09 in Rain Light Rain
7:08 AM 35.6 °F 29.2 °F 33.8 °F 93% 29.69 in 7.0 mi ESE 8.1 mph - 0.00 in Rain Light Rain
7:42 AM 35.6 °F 28.0 °F 33.8 °F 93% 29.69 in 7.0 mi East 10.4 mph - 0.00 in   Overcast
7:53 AM 35.1 °F 25.9 °F 34.0 °F 96% 29.68 in 7.0 mi East 13.8 mph - 0.00 in   Overcast
8:03 AM 35.6 °F 28.6 °F 33.8 °F 93% 29.68 in 7.0 mi East 9.2 mph - N/A   Overcast
8:53 AM 35.1 °F 25.9 °F 33.1 °F 92% 29.68 in 7.0 mi ESE 13.8 mph - 0.04 in Rain Light Rain
9:53 AM 36.0 °F 29.6 °F 34.0 °F 93% 29.68 in 9.0 mi East 8.1 mph - N/A Rain Light Rain
10:53 AM 36.0 °F 29.6 °F 34.0 °F 93% 29.68 in 9.0 mi ESE 8.1 mph - 0.00 in   Mostly Cloudy
11:00 AM 35.6 °F 27.5 °F 33.8 °F 93% 29.68 in 8.0 mi ESE 11.5 mph - 0.00 in Rain Light Rain
11:28 AM 35.6 °F 30.7 °F 33.8 °F 93% 29.68 in 7.0 mi ESE 5.8 mph - 0.00 in   Overcast
11:53 AM 36.0 °F - 33.1 °F 89% 29.68 in 4.0 mi Calm Calm - 0.01 in Rain Light Rain
12:21 PM 35.6 °F - 33.8 °F 93% 29.67 in 7.0 mi Calm Calm - 0.02 in Rain Light Rain
12:46 PM 35.6 °F - 33.8 °F 93% 29.67 in 5.0 mi Calm Calm - 0.02 in Rain , Snow Light Rain
12:53 PM 35.1 °F - 34.0 °F 96% 29.67 in 6.0 mi Calm Calm - 0.03 in Rain , Snow Light Rain
1:28 PM 35.6 °F 31.7 °F 33.8 °F 93% 29.65 in 10.0 mi ENE 4.6 mph - 0.01 in Rain Light Rain
1:53 PM 36.0 °F 30.3 °F 34.0 °F 93% 29.65 in 10.0 mi East 6.9 mph - 0.01 in   Overcast
2:53 PM 36.0 °F 30.3 °F 33.1 °F 89% 29.64 in 10.0 mi East 6.9 mph - N/A   Mostly Cloudy
3:53 PM 33.1 °F - 33.1 °F 100% 29.63 in 10.0 mi Calm Calm - N/A   Mostly Cloudy
4:53 PM 33.1 °F 28.7 °F 32.0 °F 96% 29.63 in 9.0 mi East 4.6 mph - N/A   Mostly Cloudy
5:53 PM 33.1 °F - 32.0 °F 96% 29.62 in 10.0 mi Calm Calm - N/A   Mostly Cloudy
6:53 PM 32.0 °F 28.7 °F 32.0 °F 100% 29.63 in 10.0 mi ESE 3.5 mph - N/A Fog Mostly Cloudy
7:53 PM 30.9 °F - 30.9 °F 100% 29.64 in 10.0 mi Calm Calm - N/A Fog Clear
8:25 PM 30.2 °F 25.4 °F 30.2 °F 100% 29.65 in 10.0 mi East 4.6 mph - N/A Fog Scattered Clouds
8:36 PM 30.2 °F 26.7 °F 30.2 °F 100% 29.65 in 10.0 mi East 3.5 mph - N/A Fog Mostly Cloudy
8:50 PM 30.2 °F 25.4 °F 30.2 °F 100% 29.65 in 10.0 mi East 4.6 mph - N/A Fog Scattered Clouds
8:53 PM 30.9 °F 27.5 °F 30.0 °F 96% 29.65 in 10.0 mi ENE 3.5 mph - N/A Fog Scattered Clouds
9:53 PM 30.0 °F - 30.0 °F 100% 29.67 in 10.0 mi Calm Calm - N/A Fog Partly Cloudy
10:53 PM 30.0 °F - 30.0 °F 100% 29.68 in 8.0 mi Calm Calm - N/A   Clear
11:53 PM 30.9 °F 27.5 °F 30.0 °F 96% 29.70 in 10.0 mi East 3.5 mph - N/A   Clear